Regional Weather Roundup
Issued by NWS Upton, NY

Home | Current Version | Previous Version | Text Only | Print | Product List | Glossary On
Versions: 1 2 3 4 5 6 7 8 9 10 11 12 13 14 15 16 17 18 19 20 21 22 23 24 25 26 27
000
ASUS41 KOKX 261308
RWROKX

REGIONAL WEATHER ROUNDUP
NATIONAL WEATHER SERVICE NEW YORK NY
900 AM EDT SUN MAR 26 2017

NOTE: "FAIR" INDICATES FEW OR NO CLOUDS BELOW 12,000 FEET WITH NO
SIGNIFICANT WEATHER AND/OR OBSTRUCTIONS TO VISIBILITY.

NYZ071-072-176-178-NJZ106-104-261400-
NEW YORK CITY METRO AREA

CITY           SKY/WX    TMP DP  RH WIND       PRES   REMARKS
Central Park   CLOUDY    38  32  79 E13G21    30.47R WCI  30
Wall St Helipt CLOUDY    40  34  79 NE14      30.46S WCI  32
LaGuardia APRT CLOUDY    40  33  76 E15       30.45R WCI  32
Kennedy INTL   CLOUDY    39  35  86 NE12      30.46R WCI  32
Breezy Point     N/A     37 N/A N/A NE10        N/A  WCI  30
Newark/Liberty CLOUDY    40  33  76 E12       30.45R WCI  33
Teterboro      CLOUDY    39  32  76 NE14G22   30.45R WCI  31
$$

NYZ177-179-078>081-261400-
LONG ISLAND NEW YORK

CITY           SKY/WX    TMP DP  RH WIND       PRES   REMARKS
Jones Beach      N/A     37 N/A N/A E15         N/A  WCI  28
Matinecock PT  NOT AVBL
Farmingdale    CLOUDY    38  34  85 NE9       30.46S WCI  31
MacArthur/ISP  LGT RAIN  37  35  92 NE9       30.45R WCI  30
Shirley        LGT RAIN  37  34  89 VRB3      30.47S FOG
Westhampton    CLOUDY    38  34  85 NE7       30.48R WCI  33
East Hampton   CLOUDY    37  32  84 NE9       30.48R WCI  30
Montauk          N/A     38  32  79 NE9G18    30.49R WCI  31
$$

NYZ052-065-067-261400-
HUDSON VALLEY

CITY           SKY/WX    TMP DP  RH WIND       PRES   REMARKS
White Plains   PTSUNNY   36  30  79 E8        30.44R WCI  30
Newburgh       CLOUDY    34  32  93 VRB7      30.46R WCI  28
Montgomery     CLOUDY    34  30  85 NE7       30.44R WCI  28
Poughkeepsie   MIX PCPN  32  31  96 N5        30.47R FOG     WCI  27
Albany         CLOUDY    30  18  60 NE5       30.50S WCI  25
$$

NJZ001-105-106-008-010-013-015-019>022-104-261400-
NEW JERSEY

CITY           SKY/WX    TMP DP  RH WIND       PRES   REMARKS
Newark/Liberty CLOUDY    40  33  76 E12       30.45R WCI  33
Teterboro      CLOUDY    39  32  76 NE14G22   30.45R WCI  31
Caldwell       CLOUDY    38  32  79 E10       30.45S WCI  31
Somerville     CLOUDY    41  33  73 VRB5      30.42R
Linden         CLOUDY    39  32  75 E12       30.46R WCI  32
Sussex         CLOUDY    35  32  88 NE8       30.44R WCI  29
Andover          N/A     36  33  89 CALM      30.43R
Trenton        CLOUDY    41  37  86 E12       30.40S
Millville      CLOUDY    45  40  82 E13G21    30.37R
Atlantic City  CLOUDY    44  37  76 E15G21    30.39R
Wrightstown    CLOUDY    40  36  84 E15       30.39R WCI  32
Toms River     CLOUDY    41  37  86 NE10      30.43R
Belmar         CLOUDY    39  35  86 NE15G23   30.43S WCI  31
$$

PAZ047>061-062-071-261400-
EASTERN PENNSYLVANIA

CITY           SKY/WX    TMP DP  RH WIND       PRES   REMARKS
Philadelphia   CLOUDY    43  36  76 E17       30.40R
Allentown      CLOUDY    41  34  76 E12       30.40R
Scranton       CLOUDY    38  32  79 CALM      30.36R
$$

CTZ002-004>006-009-010-012-RIZ004-006-007-MAZ004-011-015-261400-
SOUTHERN NEW ENGLAND
 IN CT

CITY           SKY/WX    TMP DP  RH WIND       PRES   REMARKS
Bradley INTL   CLOUDY    33  28  81 N8        30.51R WCI  26
Hartford       CLOUDY    33  28  81 N7        30.51S WCI  27
Danbury        CLOUDY    35  27  72 NE13      30.46S WCI  26
Wtrbury/Oxford DRIZZLE   32  23  69 E9G17     30.46R WCI  24
Bridgeport     LGT RAIN  37  29  72 NE10      30.48R WCI  30
Meriden        LGT RAIN  35  27  72 N5        30.49S WCI  31
New Haven      LGT RAIN  35  28  75 N8        30.48R WCI  29
Chester        NOT AVBL
Groton         CLOUDY    39  26  59 NE15      30.48R WCI  31
Wilimantic     CLOUDY    36  27  69 NE9       30.50S WCI  29

 IN RI

CITY           SKY/WX    TMP DP  RH WIND       PRES   REMARKS
Providence     MOSUNNY   38  28  67 NE10      30.52R WCI  31
Block Island   CLOUDY    38  30  73 NE17G23   30.48S WCI  28
Westerly       CLOUDY    39  28  64 NE12      30.49S WCI  32
 IN MA

CITY           SKY/WX    TMP DP  RH WIND       PRES   REMARKS
Boston         PTSUNNY   38  27  64 NE16      30.53F WCI  29
Worcester      CLOUDY    30  19  63 E13G18    30.48R WCI  20
Westfield      CLOUDY    31  28  89 N6        30.51S WCI  25
Provincetown   SUNNY     40  27  59 E18       30.52S WCI  31
Nantucket      SUNNY     42  32  67 E14       30.49R
$$

ANZ330-335-338-340-345-350-353-355-261400-
COASTAL MARINE OBSERVATIONS


STATION/POSITION TIME  SKY/WX   TEMP    WIND        PRES    VSBY  WAVE
                                AIR SEA DIR/SP/G                  HT/PER
                 (UTC)          (F)     (DEG/KT/KT) (MB)    (MI)  (FT/S)
NY HARB ENTRANCE 1150            40 42   60/ 17/ 19 1030.3          4/ 5
20 S FIRE ISLAND 1250            40 40   70/ 17/ 21 1030.0          5/ 6
GREAT SOUTH BAY  NOT AVBL
23 SSW MONTAUK P 1150            38 43              1030.8          4/ 5
15 E BARNEGAT LI 1230               43                N/A           6/ 6
HUDSON CANYON    1150            42 45   80/ 19/ 23 1028.7          5/ 6
KINGS POINT      1236            37 39              1031.3
EXECUTION ROCKS  NOT AVBL
CENTRAL LI SOUND 1215            37      80/ 16/ 17   N/A           1/ 2
EASTERN LI SOUND NOT AVBL
ROBBINS REEF     1236            38      50/ 13/ 15 1031.1
$$


>>>>>>>>>>>>>>>>>>>>>>>>>>>> KEY <<<<<<<<<<<<<<<<<<<<<<<<<<<
>                                                          <
>     SKY/WX - Sky Condition/Present Weather               <
>     TMP    - Temperature in Fahrenheit                   <
>     DP     - Dew Point in Fahrenheit                     <
>     RH     - Relative Humidity in Percent                <
>     WIND   - Direction (from) and Speed in MPH           <
>     PRES   - Mean Sea Level Pressure (inches of Hg)      <
>     WCI    - Wind Chill Index                            <
>     VSB    - VISIBILITY IN MILES                         <
>     HX     - HEAT INDEX                                  <
>     TC     - TEMPERATURE IN CELSIUS                      <
>     VRB    - VARIABLE WIND DIRECTION                     <
>                                                          <
>>>>>>>>>>>>>>>>>>>>>>>>>>>> KEY <<<<<<<<<<<<<<<<<<<<<<<<<<<




USA.gov is the U.S. government's official web portal to all federal, state and local government web resources and services.